FW5903 Weather Reports


time (UTC)temp
C
wind
direction
speed
KPH
gust
KPH
rain 1hr
cm
rain 24hr
cm
rain mn
cm
humidity
%
barometer
mb
20260504090105 13 190 4.8 4.8 0.00 0.00 0.00 47 996.4
20260504081535 13 176 0.0 1.6 0.00 0.00 0.00 47 997.8
20260504081031 13 173 3.2 4.8 0.00 0.00 0.00 47 998.0
20260504080527 13 167 1.6 1.6 0.00 0.00 0.00 46 997.9
20260504050340 12 161 1.6 1.6 0.00 0.00 0.00 49 1001.6
20260504045837 12 163 1.6 1.6 0.00 0.00 0.00 49 1001.5
20260504045332 12 167 1.6 3.2 0.00 0.00 0.00 50 1001.5
20260504044829 12 159 1.6 1.6 0.00 0.00 0.00 53 1001.6
20260504044326 12 159 0.0 0.0 0.00 0.00 0.00 53 1001.7
20260504043824 11 155 0.0 0.0 0.00 0.00 0.00 54 1001.9
20260504043321 11 155 0.0 0.0 0.00 0.00 0.00 55 1002.1
20260504042818 11 155 0.0 0.0 0.00 0.00 0.00 56 1001.9
20260504042314 11 155 0.0 0.0 0.00 0.00 0.00 56 1002.1
20260504041811 11 155 0.0 0.0 0.00 0.00 0.00 57 1001.9
20260504041307 11 155 0.0 0.0 0.00 0.00 0.00 58 1002.3
20260504040803 11 155 0.0 0.0 0.00 0.00 0.00 58 1002.3
20260504040301 11 155 0.0 0.0 0.00 0.00 0.00 59 1002.6
20260504035756 11 155 0.0 0.0 0.00 0.00 0.00 58 1002.6
20260504035254 11 155 0.0 0.0 0.00 0.00 0.00 57 1002.8
20260504034751 11 155 0.0 0.0 0.00 0.00 0.00 58 1002.7
20260504034249 11 154 0.0 0.0 0.00 0.00 0.00 58 1003.1
20260504033746 11 154 0.0 0.0 0.00 0.00 0.00 57 1003.1
20260504033243 11 154 0.0 0.0 0.00 0.00 0.00 55 1003.4
20260504032740 11 155 0.0 0.0 0.00 0.00 0.00 55 1003.2
20260504032237 11 154 0.0 0.0 0.00 0.00 0.00 54 1003.4
20260504031734 11 154 0.0 0.0 0.00 0.00 0.00 53 1003.5
20260504031231 12 154 0.0 0.0 0.00 0.00 0.00 52 1003.4
20260504030727 12 154 0.0 0.0 0.00 0.00 0.00 51 1003.4
20260504030225 12 154 0.0 0.0 0.00 0.00 0.00 52 1003.5
20260504025721 12 154 0.0 0.0 0.00 0.00 0.00 50 1003.5
20260504025218 13 154 0.0 0.0 0.00 0.00 0.00 48 1003.4
20260504024715 13 154 0.0 0.0 0.00 0.00 0.00 47 1003.5
20260504024211 13 154 0.0 0.0 0.00 0.00 0.00 45 1003.5
20260504023708 13 154 0.0 0.0 0.00 0.00 0.00 44 1003.7
20260504023204 14 154 0.0 0.0 0.00 0.00 0.00 42 1003.5
20260504022700 15 155 0.0 0.0 0.00 0.00 0.00 42 1003.4
20260504022156 15 155 0.0 0.0 0.00 0.00 0.00 40 1003.7
20260504021654 15 155 0.0 0.0 0.00 0.00 0.00 39 1003.8
20260504021150 16 154 0.0 0.0 0.00 0.00 0.00 38 1003.8
20260504020648 16 164 0.0 0.0 0.00 0.00 0.00 38 1003.9
20260504020143 16 166 0.0 0.0 0.00 0.00 0.00 37 1003.8
20260504015641 16 155 0.0 0.0 0.00 0.00 0.00 37 1004.0
20260504015137 16 104 0.0 0.0 0.00 0.00 0.00 36 1004.0
20260504014632 16 159 0.0 0.0 0.00 0.00 0.00 36 1003.9
20260504014130 16 129 0.0 0.0 0.00 0.00 0.00 35 1003.8
20260504013628 17 155 0.0 0.0 0.00 0.00 0.00 35 1003.9
20260504013125 17 151 0.0 0.0 0.00 0.00 0.00 35 1003.9
20260504012622 17 155 0.0 0.0 0.00 0.00 0.00 35 1003.9
20260504012120 17 158 0.0 0.0 0.00 0.00 0.00 34 1004.0
20260504011616 18 148 0.0 0.0 0.00 0.00 0.00 32 1004.0
20260504011112 18 148 0.0 0.0 0.00 0.00 0.00 31 1004.0
20260504010608 18 157 0.0 0.0 0.00 0.00 0.00 31 1004.1
20260504010104 18 159 0.0 0.0 0.00 0.00 0.00 30 1004.0
20260504005601 18 169 0.0 0.0 0.00 0.00 0.00 30 1004.1
20260504005058 19 123 0.0 0.0 0.00 0.00 0.00 29 1004.0
20260504004556 19 223 0.0 0.0 0.00 0.00 0.00 29 1004.0
20260504004053 19 149 0.0 0.0 0.00 0.00 0.00 29 1004.1
20260504003549 19 155 0.0 1.6 0.00 0.00 0.00 29 1004.2
20260504003046 20 297 6.4 8.0 0.00 0.00 0.00 28 1004.2
20260504002543 20 294 3.2 4.8 0.00 0.00 0.00 28 1004.3
20260504002041 20 296 4.8 8.0 0.00 0.00 0.00 28 1004.1
20260504001538 20 246 4.8 4.8 0.00 0.00 0.00 28 1004.1
20260504001034 20 9 3.2 3.2 0.00 0.00 0.00 29 1004.1
20260504000531 20 159 1.6 1.6 0.00 0.00 0.00 27 1004.2
20260504000029 21 144 0.0 0.0 0.00 0.00 0.00 27 1004.2
20260503235527 21 187 1.6 3.2 0.00 0.00 0.00 27 1004.2
20260503235023 21 103 0.0 1.6 0.00 0.00 0.00 27 1004.3
20260503234521 21 278 1.6 1.6 0.00 0.00 0.00 28 1004.4
20260503234019 21 171 1.6 1.6 0.00 0.00 0.00 26 1004.2
20260503233515 21 221 3.2 3.2 0.00 0.00 0.00 26 1004.4
20260503233011 21 294 3.2 8.0 0.00 0.00 0.00 26 1004.6
20260503232508 21 91 0.0 1.6 0.00 0.00 0.00 26 1004.4
20260503232006 21 224 6.4 8.0 0.00 0.00 0.00 26 1004.5
20260503231504 21 251 1.6 1.6 0.00 0.00 0.00 25 1004.6
20260503231000 21 7 3.2 3.2 0.00 0.00 0.00 26 1004.7
20260503230457 21 2 9.7 11.3 0.00 0.00 0.00 25 1004.6
20260503225954 21 294 3.2 3.2 0.00 0.00 0.00 27 1004.7
20260503225451 21 350 6.4 8.0 0.00 0.00 0.00 25 1004.6
20260503224946 21 159 1.6 3.2 0.00 0.00 0.00 27 1004.7
20260503224443 21 300 8.0 9.7 0.00 0.00 0.00 25 1004.9
20260503223941 21 263 6.4 9.7 0.00 0.00 0.00 25 1004.9
20260503223439 21 281 8.0 11.3 0.00 0.00 0.00 25 1004.9
20260503222934 21 137 0.0 1.6 0.00 0.00 0.00 24 1004.7
20260503222433 21 200 3.2 4.8 0.00 0.00 0.00 25 1004.9
20260503221931 21 217 1.6 3.2 0.00 0.00 0.00 27 1005.0
20260503221429 21 351 6.4 9.7 0.00 0.00 0.00 26 1004.8
20260503220926 21 179 1.6 3.2 0.00 0.00 0.00 26 1005.0
20260503220422 21 256 1.6 3.2 0.00 0.00 0.00 25 1005.1
20260503215919 21 352 4.8 8.0 0.00 0.00 0.00 26 1004.9
20260503215416 21 312 4.8 8.0 0.00 0.00 0.00 25 1005.1
20260503214914 21 250 3.2 4.8 0.00 0.00 0.00 25 1005.3
20260503214411 21 307 3.2 4.8 0.00 0.00 0.00 25 1005.3
20260503213908 21 312 8.0 9.7 0.00 0.00 0.00 25 1005.2
20260503213406 21 327 4.8 8.0 0.00 0.00 0.00 26 1005.3
20260503212902 21 147 8.0 11.3 0.00 0.00 0.00 25 1005.2
20260503212400 21 324 6.4 8.0 0.00 0.00 0.00 26 1005.2
20260503211857 21 297 8.0 12.9 0.00 0.00 0.00 26 1005.2
20260503211354 21 339 11.3 14.5 0.00 0.00 0.00 27 1005.3
20260503210849 21 5 6.4 8.0 0.00 0.00 0.00 26 1005.4
20260503210347 21 236 8.0 11.3 0.00 0.00 0.00 27 1005.3
20260503205841 21 299 4.8 4.8 0.00 0.00 0.00 28 1005.3
20260503205338 21 272 4.8 4.8 0.00 0.00 0.00 30 1005.5
20260503204834 21 353 11.3 12.9 0.00 0.00 0.00 26 1005.6
20260503204332 21 325 4.8 8.0 0.00 0.00 0.00 28 1005.7
20260503203829 21 323 4.8 4.8 0.00 0.00 0.00 30 1005.7
20260503203327 21 205 1.6 3.2 0.00 0.00 0.00 29 1005.4
20260503202823 21 319 8.0 12.9 0.00 0.00 0.00 29 1005.5
20260503202322 21 321 1.6 3.2 0.00 0.00 0.00 30 1005.6
20260503201820 21 258 9.7 11.3 0.00 0.00 0.00 29 1005.7
20260503201316 21 313 4.8 4.8 0.00 0.00 0.00 30 1005.6
20260503200814 21 350 6.4 8.0 0.00 0.00 0.00 29 1005.9
20260503200309 21 261 6.4 8.0 0.00 0.00 0.00 29 1005.8
20260503195807 20 319 8.0 11.3 0.00 0.00 0.00 31 1006.0
20260503195304 21 178 8.0 11.3 0.00 0.00 0.00 30 1006.0
20260503194801 21 262 6.4 11.3 0.00 0.00 0.00 29 1005.7
20260503194256 21 359 3.2 4.8 0.00 0.00 0.00 29 1005.9
20260503193753 20 286 9.7 12.9 0.00 0.00 0.00 28 1006.0
20260503193249 21 84 4.8 8.0 0.00 0.00 0.00 29 1006.0
20260503192745 20 57 1.6 1.6 0.00 0.00 0.00 29 1006.2
20260503192240 20 312 14.5 17.7 0.00 0.00 0.00 29 1006.4
20260503191737 20 315 8.0 12.9 0.00 0.00 0.00 31 1006.2
20260503191234 20 314 9.7 11.3 0.00 0.00 0.00 30 1006.2
20260503190731 21 331 3.2 3.2 0.00 0.00 0.00 29 1006.1
20260503190228 20 12 3.2 3.2 0.00 0.00 0.00 30 1006.4
20260503185725 20 233 6.4 12.9 0.00 0.00 0.00 28 1006.2
20260503185220 20 173 3.2 4.8 0.00 0.00 0.00 28 1006.1
20260503184715 20 315 6.4 8.0 0.00 0.00 0.00 27 1006.1
20260503184212 20 310 8.0 14.5 0.00 0.00 0.00 29 1006.1
20260503183708 20 334 11.3 11.3 0.00 0.00 0.00 31 1006.3
20260503183206 21 325 4.8 8.0 0.00 0.00 0.00 29 1006.3
20260503182704 20 85 1.6 1.6 0.00 0.00 0.00 31 1006.4
20260503182202 20 335 8.0 11.3 0.00 0.00 0.00 32 1006.4
20260503181658 20 320 8.0 11.3 0.00 0.00 0.00 32 1006.4
20260503181155 20 325 8.0 11.3 0.00 0.00 0.00 34 1006.7
20260503180652 20 302 11.3 14.5 0.00 0.00 0.00 30 1006.7
20260503180150 20 339 12.9 14.5 0.00 0.00 0.00 34 1006.5
20260503175647 20 293 3.2 3.2 0.00 0.00 0.00 37 1006.5
20260503175144 19 350 4.8 9.7 0.00 0.00 0.00 37 1006.5
20260503174640 20 305 8.0 11.3 0.00 0.00 0.00 35 1006.7
20260503174138 19 341 4.8 8.0 0.00 0.00 0.00 37 1006.7
20260503173632 20 331 11.3 16.1 0.00 0.00 0.00 38 1006.8
20260503173129 20 332 11.3 14.5 0.00 0.00 0.00 37 1006.5
20260503172626 20 63 1.6 1.6 0.00 0.00 0.00 39 1006.6
20260503172124 19 333 3.2 3.2 0.00 0.00 0.00 40 1006.6
20260503171620 19 357 6.4 9.7 0.00 0.00 0.00 39 1006.8
20260503171117 19 329 3.2 8.0 0.00 0.00 0.00 39 1006.5
20260503170614 19 325 9.7 11.3 0.00 0.00 0.00 40 1006.7
20260503170111 20 291 12.9 16.1 0.00 0.00 0.00 39 1006.7
20260503151006 17 343 9.7 12.9 0.00 0.00 0.00 44 1006.4
20260503150503 17 9 4.8 11.3 0.00 0.00 0.00 44 1006.4
20260503131355 13 292 6.4 8.0 0.00 0.00 0.00 55 1005.7
20260503130853 13 351 3.2 4.8 0.00 0.00 0.00 55 1005.6
20260503130350 13 335 3.2 4.8 0.00 0.00 0.00 55 1005.6
20260503110744 10 140 0.0 0.0 0.00 0.00 0.00 56 1004.3
20260503110241 10 133 0.0 0.0 0.00 0.00 0.00 56 1004.2
20260503100207 12 177 4.8 4.8 0.00 0.00 0.00 49 1004.5